DUPLEX

导读

DUPLEX是美国于1998年11月20日发射的人造卫星,与同日发射的国际空间站曙光舱同批次进入太空。该卫星归入近地轨道运行,轨道倾角约51.6度,近地点约161公里,远地点约164公里,绕地球一圈约需87.7分钟。目前该卫星已陨落,其任务定位偏向技术验证类航天任务,是美国90年代末航天布局的微小卫星组成部分。

Basic Information
目录编号:
66906
目录名称:
DUPLEX
国际标识:
1998-067XS
轨道中心:
EARTH
卫星名称:
DUPLEX
卫星全名:
DUPLEX
卫星状态:
在轨 (已飞行10151 天)
发射日期:
1998-11-20 UTC
国别 :
美国 (US)
星等 :
--
Orbit Information
数据来源 国际轨道数据
星历时间: 2026-09-05T01:12:40+0800
17小时前
查看轨道信息
半长轴: 6740.891km
偏心率: 0.0004408
轨道倾角: 51.624°
近地点辐角 93.453°
升交点赤经 246.082°
平近点角 266.697°
近地点: 359.782km
远地点: 365.726km
周期: 91.799分钟
每日圈数: 15.686528
Detailed Information
使用方式:
暂无
2D Orbit Map
3D Orbit Map
Orbit Altitude Analysis Chart
Orbit Inclination Analysis Chart
Orbit Comprehensive Analysis Chart
View Comprehensive Chart
Conjunction Data List
Event ID Objects TCA Miss Dist (km) Collision Risk Probability Collision Risk Index (CRI) Action
CDM_260905-115306-178506-690623
DUPLEX (66906)
2026-09-05T
11:53:57+0000
1.352 km
极远距离
8.633605E-6 低风险 0.54